Kulusuk, Greenland

2:09 PM -02 on April 21, 2018 (GMT -0200)
Kulusuk

Weather History for BGKK - October, 2013

Change the Weather History Date:

Friday, October 11, 2013

  Actual Average Record
Temperature  
Mean Temperature 40 °F -  
Max Temperature 42 °F 30 °F 46 °F (2002)
Min Temperature 37 °F 27 °F 19 °F (2005)
Degree Days  
Heating Degree Days 26    
Moisture  
Dew Point 38 °F    
Average Humidity 87    
Maximum Humidity 93    
Minimum Humidity 78    
Precipitation  
Precipitation 0.00 in - - ()
Sea Level Pressure  
Sea Level Pressure 29.43 in    
Wind  
Wind Speed 33 mph ()    
Max Wind Speed 43 mph    
Max Gust Speed 75 mph    
Visibility 3.3 miles    
Events Rain    
Averages and records for this station are not official NWS values.
T = Trace of Precipitation, MM = Missing Value Source: Averaged Metar Reports

Daily Weather History Graph

Daily Weather History Graph

Search for Another Location

Airport or City:

Astronomy

Oct. 11, 2013 Rise Set
Actual Time 7:11 AM -02 5:18 PM -02
Civil Twilight 6:20 AM -02 6:08 PM -02
Nautical Twilight 5:21 AM -02 7:06 PM -02
Astronomical Twilight 4:20 AM -02 8:07 PM -02
Moon 3:11 PM -02 (10/11) 9:33 PM -02 (10/11)
Length of Visible Light 11h 48m
Length of Day
10h 07m
Waxing Crescent, 46% of the Moon is Illuminated
Oct 11
Waxing Crescent
Oct 11
First Quarter
Oct 18
Full
Oct 26
Last Quarter
Nov 3
New

Hourly Weather History & Observations

Time (-02) Temp. Windchill Dew Point Humidity Pressure Visibility Wind Dir Wind Speed Gust Speed Precip Events Conditions
1:00 AM 37 °F - 34 °F 84% 29.53 in 6 mi East 32.2 mph - - Rain Light Rain
4:00 AM 38 °F - 36 °F 88% 29.46 in 3 mi East 38.0 mph - - Rain Light Rain
7:00 AM 38 °F - 34 °F 81% 29.43 in 3 mi East 33.4 mph - - Rain Light Rain
7:50 AM 39.2 °F 26.1 °F 35.6 °F 87% 29.42 in 6.2 mi East 38.0 mph 52.9 mph N/A Rain Rain
8:50 AM 39.2 °F 25.5 °F 37.4 °F 93% 29.39 in 4.3 mi East 42.6 mph 57.5 mph N/A Rain Rain
9:50 AM 39.2 °F 26.6 °F 37.4 °F 93% 29.42 in 4.3 mi East 34.5 mph 47.2 mph N/A Rain Rain
10:00 AM 40 °F - 36 °F 78% 29.43 in 2 mi East 34.5 mph - - Rain Light Rain
10:50 AM 41.0 °F 29.3 °F 37.4 °F 87% 29.42 in 3.7 mi East 33.4 mph 44.9 mph N/A Rain Rain
11:50 AM 41.0 °F 28.6 °F 37.4 °F 87% 29.39 in 3.7 mi East 38.0 mph 55.2 mph N/A Rain Rain
12:50 PM 41.0 °F 29.1 °F 37.4 °F 87% 29.42 in 3.7 mi East 34.5 mph 48.3 mph N/A Rain Rain
1:00 PM 41 °F - 37 °F 80% 29.40 in 3 mi East 35.7 mph - - Rain Light Rain
1:50 PM 41.0 °F 29.1 °F 37.4 °F 87% 29.39 in 3.7 mi East 34.5 mph 52.9 mph N/A Rain Rain
2:50 PM 41.0 °F 28.5 °F 37.4 °F 87% 29.36 in 3.7 mi East 39.1 mph 54.1 mph N/A Rain Rain
3:50 PM 41.0 °F 29.3 °F 39.2 °F 93% 29.39 in 3.1 mi East 33.4 mph 54.1 mph N/A Rain Rain
4:00 PM 42 °F - 38 °F 79% 29.40 in 3 mi East 34.5 mph - - Rain Light Rain
4:50 PM 41.0 °F 28.5 °F 39.2 °F 93% 29.42 in 3.1 mi ENE 39.1 mph 57.5 mph N/A Rain Light Rain
5:20 PM 41.0 °F 29.0 °F 39.2 °F 93% 29.42 in 2.5 mi East 35.7 mph 52.9 mph N/A Rain Light Rain
5:50 PM 41.0 °F 29.3 °F 37.4 °F 87% 29.44 in - East 33.4 mph 51.8 mph N/A Rain Light Rain
6:20 PM 41.0 °F 28.8 °F 37.4 °F 87% 29.44 in 3.1 mi East 36.8 mph 56.4 mph N/A Rain Light Rain
6:50 PM 41.0 °F 28.8 °F 37.4 °F 87% 29.44 in - East 36.8 mph 56.4 mph N/A Rain Light Rain
7:00 PM 42 °F - 37 °F 78% 29.46 in 2 mi East 35.7 mph - - Rain Light Rain
7:20 PM 41.0 °F 28.6 °F 37.4 °F 87% 29.44 in - East 38.0 mph 52.9 mph N/A Rain Light Rain
7:50 PM 41.0 °F 28.3 °F 39.2 °F 93% 29.44 in - ENE 40.3 mph 54.1 mph N/A Rain Light Rain
8:20 PM 41.0 °F 28.6 °F 37.4 °F 87% 29.44 in - ENE 38.0 mph 58.7 mph N/A Rain Light Rain
8:50 PM 42.8 °F 31.1 °F 39.2 °F 87% 29.44 in 3.1 mi ENE 38.0 mph 57.5 mph N/A Rain Light Rain
9:20 PM 41.0 °F 28.6 °F 37.4 °F 87% 29.44 in 3.1 mi ENE 38.0 mph 52.9 mph N/A Rain Light Rain
9:50 PM 42.8 °F 31.1 °F 39.2 °F 87% 29.44 in - ENE 38.0 mph 62.1 mph N/A Rain Light Rain
10:00 PM 42 °F - 38 °F 81% 29.47 in 1 mi ENE 38.0 mph - - Rain Light Rain
10:20 PM 41.0 °F 28.3 °F 39.2 °F 93% 29.44 in - ENE 40.3 mph 65.6 mph N/A Rain Light Rain
10:50 PM 42.8 °F 31.0 °F 39.2 °F 87% 29.44 in - ENE 39.1 mph 61.0 mph N/A Rain Light Rain
11:20 PM 41.0 °F 28.5 °F 39.2 °F 93% 29.44 in - ENE 39.1 mph 63.3 mph N/A Rain Light Rain
11:50 PM 42.8 °F 30.5 °F 39.2 °F 87% 29.42 in 2.2 mi ENE 42.6 mph 74.8 mph N/A Rain Light Rain